Location: Kawakawa
(35.3830°S, 174.0670°E)
Time: 16:52:02
(UTC+12:00)

CZ-4 R/B - Pass Details

Date: 15 August 2020
Orbit: 530 x 599 km, 97.7° (Epoch: 25 September)

Event Time Altitude Azimuth Distance (km) Brightness Sun altitude
Exits shadow 19:07:45 16° 44° (NE) 1,431 3.1 -15.9°
Drops below altitude 10° 19:08:57 10° 30° (NNE) 1,787 3.7 -16.2°
Sets 19:11:21 0° 15° (NNE) 2,672 4.7 -16.7°
